Time,TemperatureF,DewpointF,PressureIn,WindDirection,WindDirectionDegrees,WindSpeedMPH,WindSpeedGustMPH,Humidity,HourlyPrecipIn,Conditions,Clouds,dailyrainin,SoftwareType,DateUTC
2013-07-15 00:06:00,84.4,72.0,30.23,East,97,1.0,2.0,66,0.00,,,0.00,weatherlink.com 1.10,2013-07-15 04:06:00,
2013-07-15 00:21:00,83.8,72.0,30.23,East,84,0.0,2.0,67,0.00,,,0.00,weatherlink.com 1.10,2013-07-15 04:21:00,
2013-07-15 00:36:00,83.5,72.0,30.23,NE,50,3.0,4.0,68,0.00,,,0.00,weatherlink.com 1.10,2013-07-15 04:36:00,
2013-07-15 00:51:00,83.3,72.0,30.23,ESE,120,0.0,3.0,68,0.00,,,0.00,weatherlink.com 1.10,2013-07-15 04:51:00,
2013-07-15 01:06:00,83.0,72.0,30.23,NE,43,0.0,2.0,69,0.00,,,0.00,weatherlink.com 1.10,2013-07-15 05:06:00,
2013-07-15 01:21:00,82.7,72.0,30.23,SE,131,2.0,4.0,70,0.00,,,0.00,weatherlink.com 1.10,2013-07-15 05:21:00,
2013-07-15 01:36:00,82.3,72.0,30.22,SE,139,2.0,3.0,71,0.00,,,0.00,weatherlink.com 1.10,2013-07-15 05:36:00,
2013-07-15 01:51:00,82.1,72.0,30.22,ESE,110,3.0,7.0,72,0.00,,,0.00,weatherlink.com 1.10,2013-07-15 05:51:00,
2013-07-15 02:06:00,81.8,72.0,30.22,NE,45,1.0,5.0,73,0.00,,,0.00,weatherlink.com 1.10,2013-07-15 06:06:00,
2013-07-15 02:21:00,81.5,73.0,30.22,ESE,112,2.0,3.0,74,0.00,,,0.00,weatherlink.com 1.10,2013-07-15 06:21:00,
2013-07-15 02:36:00,81.2,73.0,30.22,East,79,1.0,4.0,75,0.00,,,0.00,weatherlink.com 1.10,2013-07-15 06:36:00,
2013-07-15 02:51:00,80.9,72.0,30.23,North,355,0.0,3.0,75,0.00,,,0.00,weatherlink.com 1.10,2013-07-15 06:51:00,
2013-07-15 03:05:00,80.7,73.0,30.22,SE,134,0.0,3.0,76,0.00,,,0.00,weatherlink.com 1.10,2013-07-15 07:05:00,
2013-07-15 03:20:00,80.5,72.0,30.22,East,82,1.0,4.0,76,0.00,,,0.00,weatherlink.com 1.10,2013-07-15 07:20:00,
2013-07-15 03:35:00,80.4,73.0,30.22,East,94,0.0,4.0,77,0.00,,,0.00,weatherlink.com 1.10,2013-07-15 07:35:00,
2013-07-15 03:50:00,80.1,73.0,30.22,East,83,1.0,4.0,78,0.00,,,0.00,weatherlink.com 1.10,2013-07-15 07:50:00,
2013-07-15 04:05:00,79.8,72.0,30.22,NE,41,1.0,3.0,78,0.00,,,0.00,weatherlink.com 1.10,2013-07-15 08:05:00,
2013-07-15 04:20:00,79.5,73.0,30.22,ESE,120,1.0,4.0,79,0.00,,,0.00,weatherlink.com 1.10,2013-07-15 08:20:00,
2013-07-15 04:36:00,79.4,72.0,30.22,East,84,1.0,2.0,79,0.00,,,0.00,weatherlink.com 1.10,2013-07-15 08:36:00,
2013-07-15 04:51:00,79.3,73.0,30.22,SSE,148,3.0,3.0,80,0.00,,,0.00,weatherlink.com 1.10,2013-07-15 08:51:00,
2013-07-15 05:06:00,79.3,73.0,30.22,SE,125,2.0,4.0,80,0.00,,,0.00,weatherlink.com 1.10,2013-07-15 09:06:00,
2013-07-15 05:21:00,79.2,73.0,30.22,SE,124,1.0,2.0,80,0.00,,,0.00,weatherlink.com 1.10,2013-07-15 09:21:00,
2013-07-15 05:36:00,79.1,73.0,30.22,NE,41,1.0,3.0,81,0.00,,,0.00,weatherlink.com 1.10,2013-07-15 09:36:00,
2013-07-15 05:51:00,78.9,73.0,30.22,East,98,0.0,4.0,82,0.00,,,0.00,weatherlink.com 1.10,2013-07-15 09:51:00,
2013-07-15 06:06:00,78.9,73.0,30.23,SE,127,0.0,1.0,82,0.00,,,0.00,weatherlink.com 1.10,2013-07-15 10:06:00,
2013-07-15 06:21:00,78.8,73.0,30.23,SE,127,0.0,1.0,82,0.00,,,0.00,weatherlink.com 1.10,2013-07-15 10:21:00,
2013-07-15 06:36:00,79.2,73.0,30.23,SE,124,0.0,3.0,82,0.00,,,0.00,weatherlink.com 1.10,2013-07-15 10:36:00,
2013-07-15 06:51:00,79.8,73.0,30.23,SE,141,0.0,3.0,80,0.00,,,0.00,weatherlink.com 1.10,2013-07-15 10:51:00,
2013-07-15 07:06:00,80.5,73.0,30.23,SE,141,2.0,2.0,79,0.00,,,0.00,weatherlink.com 1.10,2013-07-15 11:06:00,
2013-07-15 07:21:00,81.4,74.0,30.23,ESE,108,0.0,2.0,77,0.00,,,0.00,weatherlink.com 1.10,2013-07-15 11:21:00,
2013-07-15 07:36:00,82.4,74.0,30.23,SSE,165,0.0,2.0,75,0.00,,,0.00,weatherlink.com 1.10,2013-07-15 11:36:00,
2013-07-15 07:51:00,83.5,74.0,30.23,North,11,2.0,2.0,72,0.00,,,0.00,weatherlink.com 1.10,2013-07-15 11:51:00,
2013-07-15 08:06:00,84.5,74.0,30.23,NNE,32,2.0,4.0,70,0.00,,,0.00,weatherlink.com 1.10,2013-07-15 12:06:00,
2013-07-15 08:21:00,84.8,73.0,30.23,North,359,2.0,4.0,68,0.00,,,0.00,weatherlink.com 1.10,2013-07-15 12:21:00,
2013-07-15 08:36:00,85.7,74.0,30.23,NE,43,1.0,3.0,67,0.00,,,0.00,weatherlink.com 1.10,2013-07-15 12:36:00,
2013-07-15 08:51:00,86.9,74.0,30.23,NNE,27,3.0,3.0,65,0.00,,,0.00,weatherlink.com 1.10,2013-07-15 12:51:00,
2013-07-15 09:06:00,87.2,74.0,30.22,SE,124,1.0,3.0,64,0.00,,,0.00,weatherlink.com 1.10,2013-07-15 13:06:00,
2013-07-15 09:21:00,87.9,74.0,30.22,NE,34,0.0,4.0,64,0.00,,,0.00,weatherlink.com 1.10,2013-07-15 13:21:00,
2013-07-15 09:36:00,89.6,74.0,30.22,NNE,14,2.0,6.0,60,0.00,,,0.00,weatherlink.com 1.10,2013-07-15 13:36:00,
2013-07-15 09:51:00,91.1,74.0,30.21,NE,35,2.0,5.0,57,0.00,,,0.00,weatherlink.com 1.10,2013-07-15 13:51:00,
2013-07-15 10:06:00,91.1,74.0,30.21,NNW,336,1.0,5.0,58,0.00,,,0.00,weatherlink.com 1.10,2013-07-15 14:06:00,
2013-07-15 10:21:00,91.9,74.0,30.21,NNE,23,2.0,5.0,57,0.00,,,0.00,weatherlink.com 1.10,2013-07-15 14:21:00,
2013-07-15 10:36:00,93.1,75.0,30.20,East,90,0.0,4.0,55,0.00,,,0.00,weatherlink.com 1.10,2013-07-15 14:36:00,
2013-07-15 10:51:00,93.2,75.0,30.20,NNE,26,1.0,4.0,56,0.00,,,0.00,weatherlink.com 1.10,2013-07-15 14:51:00,
2013-07-15 11:06:00,93.6,76.0,30.20,North,1,0.0,5.0,57,0.00,,,0.00,weatherlink.com 1.10,2013-07-15 15:06:00,
2013-07-15 11:21:00,94.2,75.0,30.20,SE,141,1.0,5.0,53,0.00,,,0.00,weatherlink.com 1.10,2013-07-15 15:21:00,
2013-07-15 11:36:00,95.0,75.0,30.19,ESE,105,3.0,6.0,53,0.00,,,0.00,weatherlink.com 1.10,2013-07-15 15:36:00,
2013-07-15 11:51:00,94.0,74.0,30.19,SE,134,1.0,5.0,53,0.00,,,0.00,weatherlink.com 1.10,2013-07-15 15:51:00,
2013-07-15 12:21:00,95.8,75.0,30.18,NNE,16,2.0,6.0,51,0.00,,,0.00,weatherlink.com 1.10,2013-07-15 16:21:00,
2013-07-15 12:37:00,95.7,75.0,30.18,NE,52,0.0,5.0,52,0.00,,,0.00,weatherlink.com 1.10,2013-07-15 16:37:00,
2013-07-15 12:52:00,96.4,75.0,30.18,NNE,29,1.0,4.0,51,0.00,,,0.00,weatherlink.com 1.10,2013-07-15 16:52:00,
2013-07-15 13:22:00,94.4,75.0,30.17,ENE,65,1.0,6.0,53,0.00,,,0.00,weatherlink.com 1.10,2013-07-15 17:22:00,
2013-07-15 13:37:00,96.3,74.0,30.16,NNE,12,0.0,6.0,49,0.00,,,0.00,weatherlink.com 1.10,2013-07-15 17:37:00,
2013-07-15 13:52:00,97.7,74.0,30.16,North,352,3.0,8.0,47,0.00,,,0.00,weatherlink.com 1.10,2013-07-15 17:52:00,
2013-07-15 14:07:00,96.3,73.0,30.16,North,349,3.0,6.0,47,0.00,,,0.00,weatherlink.com 1.10,2013-07-15 18:07:00,
2013-07-15 14:37:00,97.5,75.0,30.15,ENE,65,1.0,8.0,48,0.00,,,0.00,weatherlink.com 1.10,2013-07-15 18:37:00,
2013-07-15 14:52:00,98.2,75.0,30.15,North,349,4.0,6.0,48,0.00,,,0.00,weatherlink.com 1.10,2013-07-15 18:52:00,
2013-07-15 15:22:00,98.0,75.0,30.14,NW,307,2.0,6.0,47,0.00,,,0.00,weatherlink.com 1.10,2013-07-15 19:22:00,
2013-07-15 15:37:00,98.8,74.0,30.14,North,11,2.0,7.0,45,0.00,,,0.00,weatherlink.com 1.10,2013-07-15 19:37:00,
2013-07-15 15:52:00,96.7,75.0,30.13,NE,43,1.0,6.0,50,0.00,,,0.00,weatherlink.com 1.10,2013-07-15 19:52:00,
2013-07-15 16:07:00,96.3,75.0,30.13,WNW,296,0.0,5.0,50,0.00,,,0.00,weatherlink.com 1.10,2013-07-15 20:07:00,
2013-07-15 16:37:00,95.9,76.0,30.12,NNW,333,1.0,7.0,52,0.00,,,0.00,weatherlink.com 1.10,2013-07-15 20:37:00,
2013-07-15 16:52:00,94.9,75.0,30.12,NNW,344,2.0,8.0,52,0.00,,,0.00,weatherlink.com 1.10,2013-07-15 20:52:00,
2013-07-15 17:07:00,95.9,74.0,30.12,NNW,342,3.0,7.0,50,0.00,,,0.00,weatherlink.com 1.10,2013-07-15 21:07:00,
2013-07-15 17:22:00,95.9,74.0,30.12,NNE,30,3.0,6.0,49,0.00,,,0.00,weatherlink.com 1.10,2013-07-15 21:22:00,
2013-07-15 17:37:00,95.4,73.0,30.11,North,349,5.0,6.0,48,0.00,,,0.00,weatherlink.com 1.10,2013-07-15 21:37:00,
2013-07-15 17:52:00,95.2,73.0,30.11,NNW,337,1.0,6.0,49,0.00,,,0.00,weatherlink.com 1.10,2013-07-15 21:52:00,
2013-07-15 18:07:00,95.2,73.0,30.11,NE,38,2.0,5.0,48,0.00,,,0.00,weatherlink.com 1.10,2013-07-15 22:07:00,
2013-07-15 18:22:00,94.4,72.0,30.11,North,354,4.0,6.0,48,0.00,,,0.00,weatherlink.com 1.10,2013-07-15 22:22:00,
2013-07-15 18:52:00,93.6,70.0,30.11,North,349,0.0,7.0,47,0.00,,,0.00,weatherlink.com 1.10,2013-07-15 22:52:00,
2013-07-15 19:07:00,93.2,71.0,30.12,NNE,28,5.0,5.0,49,0.00,,,0.00,weatherlink.com 1.10,2013-07-15 23:07:00,
2013-07-15 19:52:00,91.9,72.0,30.12,North,356,0.0,5.0,52,0.00,,,0.00,weatherlink.com 1.10,2013-07-15 23:52:00,
2013-07-15 20:22:00,91.0,72.0,30.12,NE,50,1.0,4.0,54,0.00,,,0.00,weatherlink.com 1.10,2013-07-16 00:22:00,
2013-07-15 20:52:00,89.9,72.0,30.12,North,11,0.0,2.0,56,0.00,,,0.00,weatherlink.com 1.10,2013-07-16 00:52:00,
2013-07-15 21:07:00,89.5,72.0,30.12,NNE,25,1.0,4.0,57,0.00,,,0.00,weatherlink.com 1.10,2013-07-16 01:07:00,
2013-07-15 21:22:00,89.2,73.0,30.13,NNE,32,1.0,3.0,59,0.00,,,0.00,weatherlink.com 1.10,2013-07-16 01:22:00,
2013-07-15 21:38:00,88.5,73.0,30.13,NNE,32,0.0,3.0,60,0.00,,,0.00,weatherlink.com 1.10,2013-07-16 01:38:00,
2013-07-15 22:23:00,87.5,73.0,30.14,NE,37,0.0,2.0,63,0.00,,,0.00,weatherlink.com 1.10,2013-07-16 02:23:00,
2013-07-15 22:38:00,87.1,73.0,30.14,NW,314,1.0,2.0,64,0.00,,,0.00,weatherlink.com 1.10,2013-07-16 02:38:00,
2013-07-15 23:08:00,86.5,73.0,30.14,NE,39,0.0,1.0,64,0.00,,,0.00,weatherlink.com 1.10,2013-07-16 03:08:00,
2013-07-15 23:38:00,85.7,73.0,30.14,NNE,30,0.0,2.0,66,0.00,,,0.00,weatherlink.com 1.10,2013-07-16 03:38:00,
2013-07-15 23:53:00,85.2,73.0,30.14,NNE,25,0.0,3.0,67,0.00,,,0.00,weatherlink.com 1.10,2013-07-16 03:53:00,